This is the latest recevied weather packets stored in our database for station/object KB9ZGZ. If no packets are shown the sender has not sent any weather packets the latest 10 day(s).
| Time | Temp. | Humidity | Pressure | Rain* | Wind** | Luminosity | Snow |
|---|---|---|---|---|---|---|---|
| 1778018464 | 9.44° C | 87% | 1005.2 hPa | 0 mm | - | - | - |
| 1778017558 | 9.44° C | 87% | 1005.3 hPa | 0 mm | - | - | - |
| 1778016661 | 9.44° C | 87% | 1005.3 hPa | 0 mm | - | - | - |
| 1778015756 | 9.44° C | 86% | 1005.3 hPa | 0 mm | - | - | - |
| 1778014853 | 10° C | 86% | 1005.3 hPa | 0 mm | - | - | - |
| 1778013956 | 10° C | 87% | 1005.4 hPa | 0 mm | - | - | - |
| 1778013055 | 9.44° C | 86% | 1005.8 hPa | 0 mm | - | - | - |
| 1778012150 | 10° C | 86% | 1005.9 hPa | 0 mm | - | - | - |
| 1778011245 | 10° C | 87% | 1005.9 hPa | 0 mm | - | - | - |
| 1778010352 | 10° C | 87% | 1006.2 hPa | 0 mm | - | - | - |
| 1778009442 | 10° C | 87% | 1006.2 hPa | 0 mm | - | - | - |
| 1778008541 | 10° C | 86% | 1006.6 hPa | 0 mm | - | - | - |
| 1778007637 | 10.56° C | 86% | 1006.8 hPa | 0 mm | - | - | - |
| 1778006736 | 10.56° C | 86% | 1006.8 hPa | 0 mm | - | - | - |
| 1778005836 | 10.56° C | 84% | 1006.4 hPa | 0 mm | - | - | - |
| 1778004933 | 11.11° C | 84% | 1006.3 hPa | 0 mm | - | - | - |
| 1778004029 | 11.11° C | 82% | 1006.2 hPa | 0 mm | - | - | - |
| 1778003127 | 11.11° C | 77% | 1006.1 hPa | 0 mm | - | - | - |
| 1778002239 | 11.11° C | 78% | 1005.7 hPa | 0 mm | - | - | - |
| 1778001325 | 11.11° C | 75% | 1005.8 hPa | 0 mm | - | - | - |
| 1778000425 | 11.67° C | 75% | 1005.8 hPa | 0 mm | - | - | - |
| 1777999540 | 11.67° C | 75% | 1005.6 hPa | 0.25 mm | - | - | - |
| 1777998617 | 11.11° C | 74% | 1005.6 hPa | 0.25 mm | - | - | - |
| 1777997717 | 11.11° C | 74% | 1005.5 hPa | 0.25 mm | - | - | - |
| 1777996814 | 11.11° C | 73% | 1005.2 hPa | 0.25 mm | - | - | - |
* Rain since midnight (hover to see other rain measurements)
** Current wind speed in m/s (hover to see current wind gust speed)